Wind_Speed
23 22 21 21 20 19 18 16 14 11 9 6 2 4 6 6 6 7 6 7 7 8 8 7 6 5 4 3 3 3 2 3 4 5 5 3 6 8 9 11 12 13 14 14 14 13 11 9 9 7 5 5 4 2 3 2 3 5 4 4 4 3 5 7 7 7 7 8 8 9 10 9 7 5 4 3 2 2 0 3 3 5 5 6 9 8 10 13
22 20 21 21 21 22 21 18 14 12 9 6 2 3 5 6 7 7 7 7 8 8 7 7 6 5 4 3 2 2 2 2 3 3 3 2 4 7 9 11 11 12 13 13 14 13 11 9 9 7 6 6 3 2 3 2 3 5 4 5 3 6 7 8 7 8 8 9 10 10 9 8 7 6 5 3 2 2 2 5 5 6 8 8 7 7 8 11
21 18 19 19 20 22 23 20 14 11 9 6 3 2 5 6 7 7 7 7 7 7 7 6 5 5 4 3 2 2 1 1 2 2 2 0 2 7 10 10 11 13 13 12 12 11 9 8 9 7 6 6 3 2 3 2 3 4 4 5 5 8 9 8 7 8 9 10 11 9 8 7 5 5 4 5 2 3 2 4 3 4 8 11 10 9 9 11
22 17 17 18 18 20 22 21 14 11 8 6 4 3 5 6 7 7 7 7 7 7 7 6 5 5 4 3 2 1 1 2 3 4 1 1 0 5 10 10 11 13 14 13 12 11 9 8 8 6 7 7 3 4 4 2 2 3 4 6 8 10 10 9 11 10 9 10 10 9 7 4 4 5 4 7 4 4 6 7 4 4 3 14 15 12 13 14
24 18 17 17 18 19 21 20 14 11 9 5 4 4 5 6 7 8 8 7 7 7 7 6 5 5 4 3 2 2 2 2 5 4 1 1 1 3 9 10 11 14 14 14 12 10 9 8 7 6 8 7 4 5 3 2 3 5 6 6 9 11 10 11 14 12 9 8 8 6 4 4 5 5 7 10 7 5 8 12 8 7 2 13 16 15 17 17
27 20 17 19 20 20 21 19 14 13 10 6 5 5 5 6 7 8 8 8 7 7 7 6 6 5 4 3 3 2 3 1 5 3 2 0 0 3 8 10 11 13 14 12 10 9 9 8 8 8 7 6 5 5 0 1 4 6 5 5 8 10 10 13 14 12 9 7 4 3 3 3 5 9 12 13 10 11 13 13 10 9 4 11 15 16 19 20
28 23 19 20 21 20 21 18 14 13 11 8 7 7 6 6 7 7 8 8 8 7 7 7 6 5 4 4 2 1 3 2 4 2 1 1 1 4 8 9 11 12 12 12 11 10 9 9 9 7 7 6 4 4 3 4 7 6 6 6 9 9 10 13 12 9 8 6 4 2 3 3 5 8 12 13 13 14 13 11 7 5 4 11 15 16 20 21
28 24 21 21 22 21 20 17 13 13 13 10 10 9 8 8 7 8 8 8 9 8 7 7 6 5 5 4 2 3 3 3 2 0 2 2 3 5 8 9 11 12 12 12 11 10 8 8 7 5 7 5 2 3 4 8 7 5 7 8 10 9 7 9 9 8 8 6 5 6 7 9 6 7 13 15 14 14 11 9 6 3 3 9 13 16 19 20
27 25 22 22 22 21 20 17 12 13 13 12 12 11 10 10 10 10 10 9 9 8 8 7 6 6 5 4 4 4 4 3 2 2 3 4 3 6 8 9 12 13 12 11 10 8 7 5 4 3 6 4 3 4 5 7 3 2 9 12 11 7 5 8 7 8 9 6 6 9 11 12 7 6 11 16 15 12 10 8 7 6 8 9 12 15 16 18
26 25 23 22 23 22 21 18 12 11 13 12 12 12 12 11 11 11 10 10 10 9 8 7 7 6 5 4 5 4 5 3 2 3 4 5 5 7 9 10 14 15 12 11 10 6 4 3 2 2 6 4 4 5 5 6 4 7 13 13 12 6 2 5 7 7 8 7 7 12 15 13 9 4 7 13 13 10 9 9 8 8 12 12 12 13 14 16
25 25 23 22 23 22 21 19 12 9 11 12 11 11 11 11 10 10 10 10 9 9 8 7 7 6 5 4 6 1 6 3 3 4 4 8 8 8 9 13 17 15 11 10 8 5 3 1 0 3 4 2 4 7 5 4 7 11 13 11 9 4 3 4 7 5 6 5 3 8 13 15 13 9 9 12 10 9 8 10 9 8 12 13 12 12 12 14
24 24 23 22 23 22 21 20 13 8 9 10 10 9 9 9 9 8 8 8 7 7 7 7 7 5 5 4 4 1 5 3 3 4 4 9 11 11 13 16 17 13 9 7 6 4 2 1 2 5 3 4 7 6 3 3 9 11 10 9 5 7 4 7 8 5 6 4 3 5 3 11 13 11 11 11 8 7 7 8 8 7 10 12 13 12 11 11
23 23 23 22 22 22 21 20 15 9 6 7 8 8 7 7 7 7 7 7 6 6 6 7 6 4 3 3 2 3 4 3 3 4 5 9 13 15 17 17 15 12 9 6 4 3 2 2 3 6 6 7 7 4 4 6 9 8 6 6 4 7 3 9 10 8 4 4 6 6 5 7 10 10 11 10 7 5 6 8 6 5 8 11 12 13 12 10
22 21 21 21 21 21 21 21 18 11 5 4 6 7 7 6 5 6 6 6 6 6 6 6 4 3 2 2 4 4 3 4 4 5 6 10 14 16 17 15 13 11 8 5 3 3 4 4 5 8 8 8 6 6 7 7 6 4 4 5 4 5 3 10 10 11 5 5 10 7 5 5 8 9 10 8 7 5 6 7 5 5 7 9 11 13 13 11
20 20 20 19 19 20 20 21 20 14 6 3 4 5 6 5 5 5 5 5 6 6 6 4 3 2 3 3 4 4 4 5 5 6 8 11 13 14 15 13 10 7 5 4 3 4 6 6 6 8 6 6 7 8 7 5 5 4 4 5 3 3 2 7 7 12 8 7 13 10 3 6 6 8 9 7 5 4 5 7 6 5 6 8 9 11 11 11
19 18 17 17 18 18 19 21 21 18 10 3 3 4 5 5 5 5 5 5 5 6 5 2 2 1 3 4 4 4 5 5 6 8 9 12 11 10 13 11 7 5 4 4 4 6 6 5 6 8 6 5 6 6 5 5 6 6 5 4 1 3 2 3 6 10 11 8 11 10 2 5 4 5 6 5 3 3 4 5 5 5 6 7 8 10 10 12
18 16 15 15 16 17 18 19 21 21 14 6 2 2 3 4 5 5 4 3 3 5 3 1 1 1 2 4 4 4 7 6 8 9 10 14 12 11 12 9 6 5 4 4 5 5 4 5 5 5 5 5 3 3 5 6 5 5 4 5 2 3 5 1 4 8 10 7 7 8 5 6 5 4 4 4 2 2 2 3 5 6 6 7 8 10 10 12
16 16 14 13 14 15 16 18 20 21 18 11 3 1 2 3 5 4 3 2 2 4 3 3 4 2 3 6 4 5 7 8 9 9 10 13 14 13 10 7 6 6 6 5 4 5 5 5 5 4 5 5 3 4 6 3 4 3 3 5 3 3 5 3 2 5 6 5 4 5 6 7 5 4 3 3 2 1 1 2 4 6 6 7 8 8 9 10
16 14 13 12 11 13 15 16 19 21 21 15 7 2 3 2 3 3 2 1 2 3 2 4 5 2 4 7 4 5 7 9 10 9 10 11 11 10 8 6 6 6 8 7 6 6 5 4 5 5 4 3 1 3 5 6 6 6 4 6 5 5 5 1 3 3 3 3 3 3 4 5 4 4 3 2 1 1 2 3 4 6 6 6 7 7 8 9
16 13 12 10 9 10 13 15 17 20 21 18 11 4 4 3 2 3 0 4 6 6 2 3 4 2 4 7 5 6 7 9 9 8 10 10 9 8 7 6 6 7 8 4 3 4 4 5 6 4 1 3 4 4 6 5 4 4 5 5 5 7 4 3 5 3 1 3 1 4 3 4 3 3 2 1 1 2 2 3 3 5 6 6 7 7 8 9
16 13 11 9 8 8 10 13 15 18 20 19 15 7 5 5 2 0 4 5 5 5 4 4 5 4 3 5 6 6 6 8 9 9 11 10 9 8 8 7 7 7 5 1 1 2 3 7 4 1 3 3 4 4 4 4 3 4 5 6 5 7 2 5 5 4 3 5 1 5 3 4 3 2 3 3 3 2 1 2 2 4 6 7 9 9 9 10
17 14 11 8 7 6 7 11 12 15 19 20 18 10 6 4 1 1 4 4 4 5 5 6 5 3 3 5 7 7 7 8 10 11 12 11 11 9 6 7 8 4 4 4 5 4 6 8 3 3 2 2 3 4 5 6 5 5 5 6 6 4 1 4 6 6 4 5 2 6 4 3 5 3 3 4 4 3 2 1 1 4 6 8 9 10 11 12
17 15 12 8 7 5 5 9 11 12 16 20 20 14 8 7 3 1 1 4 4 5 5 5 5 3 4 5 5 8 8 7 8 12 13 12 11 8 6 7 6 2 3 6 7 6 6 3 3 2 1 4 6 4 6 7 6 7 6 7 7 3 3 2 5 6 4 4 2 6 5 4 6 5 5 5 5 5 5 4 3 4 6 7 9 9 11 12
17 16 13 9 7 4 3 7 10 10 13 18 20 18 13 8 5 3 1 4 3 2 4 4 4 3 3 3 5 8 7 5 4 8 13 13 9 6 6 5 4 5 5 4 5 9 7 3 5 2 4 6 8 6 8 8 6 8 7 8 8 4 4 4 1 1 4 4 5 6 6 5 7 8 7 7 7 7 7 7 6 5 6 6 8 9 10 11
16 16 14 10 8 4 2 6 11 11 11 14 18 19 14 7 4 3 1 5 3 4 4 5 4 2 2 4 5 5 5 5 4 4 9 11 8 5 4 3 5 5 3 2 5 8 5 3 2 6 6 6 9 8 8 7 7 8 7 7 7 6 5 3 2 4 5 5 7 8 7 3 8 10 8 8 8 9 9 10 9 8 9 9 9 10 10 10
16 15 14 11 8 5 3 4 9 10 9 10 16 19 14 5 3 2 1 4 3 4 4 5 5 4 3 3 4 4 6 5 4 3 7 10 9 5 3 4 5 4 0 2 6 5 1 2 1 6 6 7 9 8 5 4 8 6 0 0 3 5 7 6 5 5 6 6 5 9 8 4 5 11 11 10 10 11 11 11 12 12 12 12 12 11 11 10
15 15 14 12 8 6 4 3 8 10 8 10 15 18 12 3 2 2 2 4 2 2 2 4 3 4 3 2 4 6 4 3 4 4 6 9 9 7 6 5 4 3 2 3 4 2 3 3 4 5 6 7 8 5 3 4 9 3 5 3 2 6 8 8 8 6 7 7 4 10 9 7 5 7 12 12 11 11 12 12 14 15 15 15 13 11 11 12
14 14 13 12 8 7 6 5 8 10 10 11 15 16 9 2 2 0 3 2 2 1 1 3 2 3 1 2 5 6 3 2 2 4 6 10 8 6 9 6 5 2 3 5 5 3 3 4 4 5 7 6 3 2 3 4 7 2 5 4 5 7 9 9 8 8 8 7 7 9 9 8 5 5 10 11 11 12 14 15 15 17 18 17 15 13 13 12
13 12 12 10 8 7 7 7 9 10 11 11 14 14 6 2 1 2 4 2 0 1 2 3 3 3 1 3 5 6 5 3 3 2 5 8 8 6 6 4 5 5 3 7 8 1 2 1 3 5 6 3 2 2 2 5 5 3 4 5 6 8 9 9 8 8 7 7 10 8 9 7 5 6 9 8 9 12 13 13 14 18 20 18 16 15 15 14
11 11 11 8 8 8 7 8 9 11 11 10 12 11 4 1 2 3 3 1 0 2 2 2 2 0 3 5 6 4 5 4 1 1 4 5 6 7 3 2 4 7 5 8 9 5 2 3 1 4 5 4 2 2 2 4 5 4 5 8 8 9 9 8 7 6 7 8 7 4 9 7 5 5 8 7 8 10 11 12 14 18 21 20 18 17 17 16
10 9 9 7 8 9 8 9 8 9 10 9 11 9 3 2 3 4 1 0 0 1 2 2 2 1 2 4 3 3 3 3 2 4 6 5 6 8 5 4 5 6 7 7 8 6 6 6 4 3 2 2 3 5 5 5 5 5 7 7 7 7 6 6 6 5 7 6 2 5 6 8 6 3 6 8 7 7 10 13 15 19 21 22 20 19 18 17
10 8 7 5 6 8 11 12 10 9 8 9 10 6 4 3 3 3 1 2 2 0 0 1 2 1 1 3 3 1 2 2 3 4 5 4 6 6 5 5 3 4 6 4 3 4 6 7 6 6 4 4 6 6 6 7 6 6 6 6 6 6 4 5 5 4 6 3 6 5 3 5 7 4 3 8 8 7 9 12 16 21 23 23 22 20 20 19
12 8 6 3 3 6 9 11 11 10 8 8 8 4 5 4 3 0 0 2 0 2 1 1 2 3 3 5 3 1 3 3 3 3 3 4 6 5 4 3 4 6 6 4 4 5 4 5 9 8 6 6 7 6 4 4 4 5 4 4 5 6 6 6 6 6 6 1 5 5 1 5 8 2 3 5 5 5 8 12 16 22 24 24 23 22 21 20
15 9 4 1 3 6 7 9 11 10 8 7 6 4 4 4 1 1 1 0 3 1 0 1 4 4 5 5 1 1 4 3 2 3 5 5 7 6 5 5 6 7 7 6 6 6 7 3 7 7 4 7 8 5 5 4 3 4 3 4 7 5 6 7 6 6 7 5 1 4 3 6 5 2 6 4 3 3 7 10 15 20 23 23 23 23 22 21
16 9 5 3 6 9 9 10 10 9 8 6 5 4 3 3 1 1 2 3 3 2 1 2 6 7 7 5 2 1 2 1 2 3 6 6 6 6 5 5 7 7 7 6 3 3 8 6 4 5 3 5 5 1 2 5 5 2 1 5 5 3 4 6 7 7 7 8 7 5 5 5 1 6 6 5 4 5 8 10 15 19 21 22 22 23 23 22
13 11 10 9 11 12 12 11 10 8 7 6 5 3 1 2 4 3 4 5 4 5 7 6 6 6 6 3 3 4 2 2 2 4 5 6 6 6 5 2 4 7 7 6 4 3 7 4 7 6 3 4 2 0 2 5 4 1 3 5 0 3 5 7 6 2 2 7 8 6 7 6 3 6 6 6 5 7 9 11 15 19 21 22 23 24 23 22
11 13 18 18 17 16 12 11 10 6 4 5 3 1 2 3 5 5 6 7 5 5 7 6 1 3 5 4 3 3 3 3 3 3 3 3 3 4 5 2 2 5 5 4 6 4 5 6 6 8 7 6 3 2 5 5 5 4 4 1 3 1 4 5 5 3 4 8 7 6 9 8 6 3 6 8 8 9 10 12 14 17 21 23 23 23 23 22
12 10 19 25 24 20 14 10 8 4 3 4 1 1 3 3 6 8 8 8 5 3 5 5 1 1 4 4 4 0 0 3 2 2 4 3 1 1 3 2 3 3 2 2 5 2 2 8 4 7 6 6 6 5 6 6 6 6 5 2 1 5 4 4 4 5 7 9 7 9 11 8 8 5 6 9 10 10 11 12 13 16 21 23 24 23 22 21
16 6 12 26 28 21 13 9 6 3 3 3 1 2 3 4 7 9 9 9 5 4 4 4 2 1 2 5 6 3 2 4 4 4 4 2 1 0 1 2 2 3 2 4 6 1 2 7 4 4 4 4 6 7 7 6 6 5 5 4 4 5 5 5 5 5 7 8 8 10 10 7 6 4 3 4 6 10 11 12 13 17 22 23 23 23 23 22
20 5 8 26 28 18 11 10 8 3 1 3 4 4 4 6 8 8 9 8 6 4 3 4 3 3 4 5 6 5 4 5 7 6 4 3 3 3 2 2 2 2 2 5 6 3 3 5 5 3 4 4 6 5 6 6 4 5 6 6 5 4 4 5 6 7 7 8 9 8 9 7 2 1 3 3 3 6 10 11 11 15 20 22 22 23 23 23
21 5 8 25 26 15 11 11 10 6 3 4 4 6 7 8 10 10 8 7 6 5 4 6 6 6 7 6 6 6 5 6 7 7 6 5 4 4 2 1 3 2 2 5 6 5 4 4 7 6 4 7 5 1 2 4 3 5 6 6 7 6 5 6 8 9 7 8 9 8 10 8 0 3 2 2 2 3 5 7 8 11 16 20 22 22 22 22
18 5 9 24 24 15 8 7 8 6 4 5 6 6 8 9 10 10 9 8 7 5 4 5 5 5 7 6 6 6 6 8 8 7 7 6 6 5 1 3 2 4 4 6 3 0 1 4 8 9 9 9 2 5 3 3 4 8 8 8 9 7 7 8 9 8 6 8 9 8 10 7 3 5 2 3 2 2 1 4 5 7 10 15 19 20 20 21
13 6 10 23 24 15 7 5 6 5 4 6 8 7 7 8 8 9 10 9 8 6 4 4 4 4 4 3 5 7 6 7 8 9 9 9 8 5 1 3 3 4 5 6 3 2 2 4 8 8 9 10 5 4 2 3 5 8 9 9 9 8 9 9 8 7 6 8 8 7 10 7 4 4 2 3 4 3 3 4 4 5 6 10 15 18 20 20
12 7 7 21 24 12 6 4 5 4 4 7 9 7 6 5 5 7 9 10 9 6 5 6 5 5 5 5 6 7 6 5 7 9 8 7 4 1 2 5 6 6 6 4 1 3 3 5 7 7 8 8 7 5 4 5 6 7 7 7 8 11 10 8 6 5 6 10 11 9 10 7 3 5 3 4 5 4 5 5 3 5 6 8 12 16 18 19
12 6 5 16 21 13 9 6 5 3 5 7 7 6 5 3 3 7 11 11 8 6 6 7 8 8 7 6 7 8 7 7 7 8 7 7 5 2 3 5 8 11 9 3 2 3 5 7 7 7 9 8 8 6 3 1 4 5 6 7 9 12 12 8 7 7 8 10 12 11 11 10 3 7 7 6 6 6 6 6 5 5 6 8 11 13 16 16
7 3 4 10 13 12 10 7 7 5 5 6 6 4 5 5 4 7 9 7 4 6 8 8 9 9 6 6 7 7 7 8 8 8 8 9 8 4 1 2 7 10 6 2 6 7 6 8 10 11 13 12 13 12 7 6 8 9 10 11 11 13 14 11 9 9 9 9 11 12 13 15 12 9 10 10 7 7 6 6 6 6 7 8 10 13 14 14
3 2 5 6 5 6 6 6 8 6 3 3 4 4 5 7 6 4 4 2 4 9 9 7 5 5 6 8 8 7 8 8 8 9 9 9 9 7 4 4 8 9 5 4 8 8 7 9 13 16 18 17 19 19 16 14 15 15 16 16 15 14 16 15 12 12 10 9 12 15 14 16 16 14 14 14 9 6 6 6 7 8 9 9 11 13 14 13
3 1 2 3 3 2 2 4 8 6 2 2 3 3 6 8 6 4 3 3 6 8 6 4 4 4 7 8 7 7 9 9 9 9 8 6 8 9 7 7 7 6 6 9 9 7 7 11 14 16 19 20 20 20 20 18 17 17 18 19 19 18 18 18 17 16 13 12 16 17 17 19 18 16 17 15 9 6 6 6 7 8 9 11 12 13 13 13
3 1 1 1 3 4 5 7 6 4 3 3 3 4 6 7 7 5 3 3 5 4 3 5 7 6 8 8 6 7 7 8 9 9 8 9 10 9 8 8 8 5 6 9 8 5 6 10 14 17 19 21 21 21 21 20 20 21 21 21 22 21 22 22 20 19 19 20 22 22 23 23 19 18 19 14 6 6 6 6 8 10 11 12 12 12 12 11
1 1 1 3 5 6 7 7 4 4 3 3 3 5 6 8 8 5 3 4 5 4 4 8 8 7 9 9 7 7 7 8 11 11 11 11 10 8 7 6 6 7 9 9 7 5 6 9 13 14 15 18 21 21 21 22 23 24 25 25 24 23 23 23 21 20 19 21 23 24 24 22 18 16 15 8 4 6 7 8 10 11 11 12 12 11 10 8
0 2 1 3 5 5 5 5 5 5 5 4 4 4 4 6 6 5 6 8 10 10 8 7 8 7 8 10 9 10 10 11 13 15 15 15 13 12 10 9 9 10 9 9 8 7 8 9 11 12 12 16 19 21 23 25 25 25 28 28 25 22 21 20 19 18 17 19 22 21 19 17 12 6 5 5 6 7 8 9 10 10 11 11 11 10 8 6
1 0 1 2 4 4 5 5 5 5 4 2 4 5 5 6 5 5 6 6 6 7 5 5 8 9 8 10 10 10 11 13 16 18 19 20 21 21 20 19 19 15 11 9 9 9 10 10 11 12 12 15 19 21 22 22 21 20 21 22 22 23 24 22 19 19 20 19 17 16 16 12 4 5 7 7 7 7 8 8 9 10 10 10 9 8 6 4
Wind_Direction
22 26 26 27 27 26 24 20 17 12 6 357 316 224 210 197 183 181 186 191 193 195 200 204 207 207 202 208 223 232 249 256 261 263 252 237 220 213 198 199 197 191 187 189 192 190 195 203 214 222 217 229 248 263 265 245 256 266 275 301 326 7 7 359 336 327 327 311 318 335 338 323 326 10 358 308 225 256 237 183 196 168 144 120 124 119 137 153
20 23 24 24 25 24 20 16 15 12 11 9 4 201 193 185 176 175 178 185 187 187 193 198 201 200 198 209 218 236 257 261 274 266 240 222 208 201 195 196 193 190 185 187 190 186 191 199 208 213 217 236 237 257 267 222 251 272 299 302 338 13 349 336 320 314 313 307 313 317 322 317 318 355 339 314 148 215 203 160 176 176 152 144 148 137 139 156
21 22 23 23 22 19 14 12 13 14 15 20 37 150 173 170 167 168 173 178 179 180 185 190 192 194 198 204 205 242 256 272 270 209 171 133 198 195 195 191 185 184 180 180 186 188 197 199 202 207 231 252 233 253 267 206 249 278 303 301 356 357 332 333 329 316 315 310 305 306 312 306 327 358 332 310 250 168 97 96 127 191 154 149 170 169 155 155
23 24 24 21 18 14 10 9 14 19 21 34 59 125 151 156 158 161 167 169 172 172 175 180 182 189 191 190 194 182 184 208 189 169 148 38 137 190 191 187 181 180 176 178 184 189 194 190 194 209 248 257 226 253 259 191 279 304 291 309 345 335 322 334 337 326 318 308 298 300 302 312 13 20 351 322 284 126 55 7 352 305 151 154 179 187 171 165
23 25 24 21 17 14 11 10 17 23 26 52 77 115 138 146 150 156 162 160 162 162 166 171 174 185 179 179 182 161 205 195 150 165 266 18 30 179 184 184 180 179 180 182 182 183 185 182 193 216 246 259 239 243 231 159 298 293 273 299 324 321 318 326 334 334 324 307 291 293 318 11 49 68 38 4 349 22 351 320 302 293 249 161 181 191 178 172
23 25 24 22 19 16 14 14 21 26 32 62 87 110 130 138 146 152 154 152 153 155 161 166 171 176 168 176 174 186 254 20 116 184 273 49 44 156 177 179 179 180 180 181 176 178 179 181 206 222 240 255 255 261 311 99 279 285 280 294 316 319 313 318 331 339 332 321 310 329 29 52 93 83 41 22 12 348 335 320 291 269 243 168 179 189 175 167
22 26 25 22 19 18 18 19 27 32 38 64 86 103 117 128 139 143 144 144 143 149 157 161 167 167 165 167 147 203 251 41 88 202 246 157 143 150 176 177 178 176 172 175 172 177 181 192 215 232 249 251 262 272 320 310 265 264 289 309 323 323 316 323 341 356 1 5 19 77 100 79 103 82 37 25 17 351 344 342 314 276 220 170 172 176 166 161
21 25 25 22 18 18 20 24 34 39 44 63 81 95 104 114 123 127 133 134 136 148 154 158 160 159 167 160 170 219 179 92 48 175 143 145 142 155 172 172 174 169 168 177 173 176 183 196 215 233 249 257 313 286 315 305 252 236 294 317 319 319 339 347 2 27 42 59 90 115 98 70 86 91 48 25 7 356 355 359 2 29 139 158 159 159 157 157
20 23 25 22 18 18 21 27 39 45 50 62 76 88 97 106 113 118 124 128 136 146 150 157 156 159 166 155 217 226 138 105 43 100 129 124 136 155 161 169 168 161 170 177 169 178 188 196 214 252 272 289 311 292 313 299 258 308 309 313 309 311 7 6 20 51 64 82 117 109 84 66 81 112 54 25 5 2 8 20 35 71 97 119 138 145 151 152
19 21 23 22 19 20 24 28 41 52 53 60 73 84 92 100 107 115 122 129 139 147 153 160 154 161 157 150 226 223 120 119 76 100 130 117 127 146 150 165 158 155 165 163 161 176 188 196 199 270 280 277 274 287 296 290 318 324 307 304 294 289 21 7 29 75 88 83 111 102 84 67 60 76 39 17 9 9 18 39 50 82 95 104 122 133 144 146
18 20 21 20 19 21 25 29 40 58 58 60 69 80 89 97 106 115 124 134 144 150 155 156 154 161 148 168 250 230 120 138 89 103 129 119 122 129 140 152 148 152 161 154 161 170 165 176 261 271 265 272 281 272 254 278 310 308 304 298 271 218 115 34 32 77 109 78 101 117 93 70 53 44 24 7 9 17 25 45 50 78 98 105 114 122 134 138
16 17 20 20 18 21 25 28 38 59 66 65 69 76 85 95 104 114 124 134 142 147 150 152 151 148 150 193 268 100 133 151 106 108 122 125 129 131 144 150 146 155 163 161 178 171 174 226 269 267 290 317 288 271 230 271 297 298 294 288 246 186 133 50 26 37 108 78 333 235 133 60 47 34 16 3 9 22 33 49 47 67 97 109 117 121 126 133
14 15 18 20 19 19 22 27 34 50 72 76 76 80 85 95 104 113 122 128 132 139 145 149 147 146 182 211 179 148 155 146 120 113 127 135 136 141 149 153 151 156 157 160 185 191 246 276 265 270 288 284 279 305 301 269 276 283 264 272 263 210 150 54 16 7 89 86 360 255 214 59 52 35 14 3 7 17 41 54 48 63 93 109 120 123 124 132
13 13 16 19 20 20 20 25 31 40 66 85 87 91 91 97 109 116 121 126 131 138 143 148 148 157 204 172 152 170 155 139 138 122 132 141 141 146 150 155 158 160 160 167 203 242 279 295 275 266 266 262 278 300 276 243 235 252 238 245 260 236 103 62 20 9 35 34 359 288 223 75 58 36 15 4 8 18 46 56 54 64 91 109 120 124 123 125
13 13 14 16 20 21 20 23 28 34 48 84 98 103 103 106 114 118 123 126 135 140 142 143 128 160 207 158 156 181 150 141 147 132 136 143 144 151 155 161 166 166 178 201 242 272 292 297 274 266 259 246 262 268 251 215 203 224 243 228 219 252 92 84 44 21 10 7 3 325 249 98 61 30 13 5 12 27 51 57 58 69 94 111 123 127 126 127
12 13 14 15 18 21 21 22 25 29 36 66 102 109 118 122 121 123 120 122 148 151 147 155 106 282 252 148 150 182 153 147 154 144 140 145 153 165 164 166 172 181 203 234 269 286 293 278 257 265 266 245 246 258 250 223 205 205 242 258 241 277 289 105 83 39 9 359 18 5 36 114 71 35 14 4 7 31 60 66 71 81 92 106 126 132 133 138
11 12 14 14 14 20 23 23 23 26 30 42 87 113 121 139 140 137 122 112 156 161 170 223 140 262 270 138 146 158 154 160 159 149 141 147 156 166 168 169 175 191 217 256 273 272 265 248 239 244 239 239 249 260 247 233 219 197 226 265 255 272 291 307 98 57 20 8 37 40 73 98 79 65 34 19 2 12 70 81 91 96 86 90 114 128 134 140
10 11 14 14 13 17 23 25 24 24 26 31 53 98 98 147 152 152 151 114 140 175 206 210 195 226 170 160 157 140 160 170 159 156 153 150 151 158 169 174 176 190 208 228 230 211 218 224 237 245 215 216 231 247 254 283 305 284 274 280 265 240 254 265 54 45 16 14 45 58 87 95 89 86 60 41 12 4 110 103 109 117 105 86 93 110 118 124
10 11 12 13 12 14 21 26 26 25 24 26 35 61 65 107 166 178 182 210 217 225 225 169 200 281 109 142 147 141 166 168 160 168 169 163 161 164 176 187 192 209 217 213 182 189 233 228 223 243 223 214 311 298 304 342 333 304 296 289 292 283 263 202 83 57 6 356 43 49 77 99 101 95 76 53 50 177 152 141 125 126 127 104 89 93 101 106
7 10 10 10 11 14 19 24 28 28 26 28 38 58 48 30 213 176 212 279 261 257 275 166 220 296 103 132 144 153 164 167 168 177 184 181 174 176 191 203 207 219 229 231 159 173 258 250 228 241 309 6 351 326 315 326 313 282 271 267 273 276 277 104 127 132 343 293 69 84 101 116 109 99 97 91 157 187 179 157 139 130 131 118 110 106 103 107
2 7 9 6 9 14 19 23 30 31 28 33 43 57 45 8 273 267 333 282 254 247 233 218 243 257 165 151 162 167 168 175 174 181 193 184 183 191 188 202 217 211 205 227 247 183 245 255 236 183 6 354 326 308 292 282 269 261 266 272 269 264 259 105 134 159 200 264 178 133 163 139 136 141 147 191 202 196 184 145 141 147 138 122 125 130 126 125
358 2 6 6 5 12 22 23 32 33 29 34 40 50 58 25 330 316 320 279 266 264 242 232 244 248 206 197 195 187 187 191 179 185 196 184 195 206 175 195 225 211 161 193 237 216 226 247 204 110 12 305 275 274 257 255 255 255 263 272 273 280 301 121 139 152 187 265 209 171 203 167 158 177 179 201 208 205 205 171 171 182 162 140 141 148 146 142
355 358 1 6 360 7 31 25 31 35 32 35 34 29 26 13 7 64 292 279 279 264 250 244 245 239 217 214 206 197 202 210 186 185 196 190 197 215 204 209 229 250 208 213 238 243 242 249 100 101 299 267 256 235 239 252 249 250 256 270 277 298 297 222 138 134 176 271 251 193 217 196 167 177 188 198 200 198 203 198 195 206 189 158 153 158 155 151
353 353 357 6 5 12 46 30 29 30 32 34 27 16 9 4 11 49 237 273 276 231 234 231 227 233 219 213 202 202 214 233 202 179 192 198 195 205 221 229 243 244 227 225 257 263 269 19 57 290 264 264 265 243 240 255 258 254 245 263 285 303 289 278 45 105 198 226 211 199 235 225 188 192 188 181 188 188 191 196 191 195 199 174 160 163 161 155
352 351 354 3 13 21 44 34 24 21 27 25 16 8 360 358 13 39 238 261 235 177 206 209 207 212 216 221 195 208 241 231 210 178 186 203 204 199 207 217 247 245 196 206 260 262 267 52 33 277 262 256 264 256 247 256 275 271 240 248 282 301 287 263 284 285 261 240 184 195 267 258 179 195 191 171 184 190 189 196 195 192 198 195 184 176 169 157
350 351 354 1 15 31 59 33 12 17 27 10 3 1 354 356 19 40 254 256 202 152 178 186 199 188 175 202 179 215 247 200 175 198 194 199 205 228 233 180 220 269 14 246 266 269 251 108 249 276 276 259 257 256 234 236 270 278 151 226 273 280 275 261 262 262 277 295 172 190 268 296 184 198 188 174 188 192 193 200 200 200 202 201 195 182 173 163
349 351 356 0 9 29 52 11 2 20 17 348 353 357 353 6 53 46 253 242 165 103 169 162 181 176 163 216 194 218 255 127 137 167 189 200 195 224 245 196 206 232 170 256 269 211 184 204 228 256 268 259 255 249 161 215 263 291 62 35 283 265 268 269 270 254 268 294 222 203 237 273 259 198 171 175 189 194 199 204 201 202 203 199 196 184 173 166
350 351 357 2 5 19 21 359 8 14 353 340 349 353 357 82 95 12 256 254 105 70 153 119 130 151 136 287 215 230 307 10 201 150 169 207 195 210 241 241 266 252 162 249 270 125 160 249 258 263 264 261 279 42 102 224 258 21 42 344 289 274 273 271 271 266 268 277 261 225 212 251 272 147 154 178 196 203 204 205 202 202 201 196 193 186 176 170
349 351 357 3 8 17 11 2 7 356 339 340 344 349 8 112 139 233 248 278 117 175 109 113 156 147 330 268 207 234 273 271 281 96 153 202 195 209 256 265 276 276 208 243 269 330 73 325 310 278 272 285 8 62 117 242 266 20 357 289 264 257 257 256 258 269 267 255 268 244 187 231 272 149 161 188 207 217 207 202 203 199 197 193 189 185 179 175
345 349 355 1 12 18 16 10 358 343 338 336 339 349 6 163 230 240 235 266 218 132 115 156 169 193 287 238 194 205 240 237 291 163 171 187 197 211 268 317 262 264 241 234 257 270 120 109 243 254 280 337 345 226 201 251 286 316 285 266 259 246 235 239 247 261 265 249 257 215 180 230 274 173 175 187 208 220 203 193 195 194 193 190 188 186 182 179
342 344 351 6 17 16 18 12 352 344 342 329 338 345 296 216 245 258 234 172 292 132 179 174 132 290 281 260 225 182 207 213 181 215 205 184 197 204 214 229 226 246 252 238 237 228 192 195 199 184 222 305 262 232 206 218 257 271 266 268 274 261 234 234 230 216 249 254 147 127 179 227 257 227 182 184 194 209 201 190 188 190 190 187 187 187 185 182
343 342 352 13 24 18 17 7 350 349 344 327 336 326 252 227 238 249 151 181 225 60 198 113 77 347 322 280 258 190 231 216 176 231 240 215 219 213 212 231 238 247 255 251 223 217 217 208 176 157 178 225 246 240 200 197 218 238 256 270 276 278 261 250 244 226 255 266 113 125 185 225 249 270 177 184 187 196 205 195 189 188 187 186 186 186 186 186
350 351 357 12 20 15 13 360 347 347 343 330 323 277 241 262 258 279 65 209 78 35 2 343 328 317 293 260 231 169 241 221 167 217 231 239 244 227 205 230 275 269 264 286 291 269 248 180 169 184 182 190 230 257 233 195 205 234 268 288 279 288 286 273 270 266 271 268 124 147 201 257 254 242 118 168 173 180 200 198 194 190 187 186 186 186 188 190
359 6 5 341 344 351 357 356 350 346 345 335 303 244 237 270 283 28 281 75 44 22 144 346 308 279 256 258 268 67 247 211 164 223 217 222 239 237 220 200 214 247 262 272 278 275 274 237 180 187 155 169 209 266 317 315 284 268 298 287 272 281 284 282 288 286 289 304 258 173 195 268 267 119 107 116 116 163 197 197 195 191 189 187 187 190 192 192
7 24 29 4 350 342 343 350 350 347 345 328 275 239 250 280 330 15 318 20 20 326 325 305 289 276 256 241 181 139 281 207 160 242 239 231 245 253 248 208 195 223 254 261 261 259 269 267 145 128 107 169 199 245 329 293 277 239 246 254 258 301 302 289 295 301 305 299 283 230 230 268 213 120 124 125 134 175 191 191 189 189 188 188 190 194 195 196
22 43 39 18 359 342 333 338 345 351 344 310 264 244 291 354 12 9 360 353 337 339 328 286 260 269 268 244 188 171 192 248 248 269 250 239 257 254 251 253 190 215 242 261 269 254 264 266 121 133 182 169 169 343 210 265 291 193 237 254 20 22 311 284 280 283 277 274 267 241 247 253 181 147 144 148 161 176 186 189 189 189 189 190 195 198 198 200
35 43 32 19 6 351 336 331 337 348 330 293 274 327 354 32 21 7 8 346 323 330 314 289 258 285 281 280 254 172 156 237 245 262 263 241 252 238 233 238 183 231 255 274 273 265 279 276 165 172 203 161 131 267 212 234 272 263 265 308 67 344 261 261 270 266 256 265 263 248 253 256 255 223 151 164 178 177 187 190 189 191 192 196 200 200 201 203
24 30 23 14 4 354 344 335 338 341 290 279 252 43 346 27 35 19 9 348 317 305 296 283 314 326 292 289 291 12 76 272 241 254 275 265 204 169 252 230 163 218 258 251 258 249 279 276 218 176 199 155 153 230 223 201 226 261 299 353 269 266 247 215 244 268 272 272 270 265 262 257 261 249 155 169 183 178 184 188 190 195 198 202 203 201 202 203
19 23 16 8 1 353 350 358 359 328 276 295 34 60 349 1 28 19 5 351 316 292 297 287 281 279 272 288 305 318 283 287 305 297 282 269 218 144 292 277 169 168 181 230 252 263 248 269 259 163 163 154 178 224 237 209 191 224 265 242 229 267 277 259 256 267 273 275 277 277 271 258 257 245 146 148 170 173 181 187 195 202 202 205 204 202 204 203
19 21 8 7 5 4 19 41 39 7 348 29 24 17 359 346 351 353 357 356 326 293 305 307 297 280 278 290 293 287 278 287 293 286 275 272 267 243 220 246 240 167 161 234 252 268 239 246 262 216 156 205 231 224 241 246 216 210 232 235 224 225 256 268 265 256 256 265 272 276 271 267 278 115 119 95 118 164 182 191 202 209 207 208 207 205 206 205
20 19 357 5 13 28 44 51 44 19 36 58 21 2 359 338 325 328 343 346 317 291 297 301 294 285 287 290 279 274 282 281 276 274 272 265 258 255 203 200 266 229 185 232 240 247 244 241 260 257 224 239 251 62 359 314 298 268 261 262 259 252 255 264 260 248 238 253 264 271 273 273 106 108 126 106 105 145 186 207 216 217 213 211 209 206 206 206
20 13 345 1 15 34 43 53 45 25 42 37 355 326 329 321 313 323 338 343 326 306 289 288 295 294 285 282 286 286 283 279 273 268 271 264 252 261 109 108 256 259 250 266 268 143 302 275 262 262 262 260 261 73 25 321 289 272 268 268 269 264 254 256 263 262 247 247 255 263 272 271 124 116 119 122 129 121 176 226 234 231 222 214 210 206 204 202
11 354 347 360 9 22 31 51 46 33 46 13 340 320 317 315 315 328 341 348 343 334 317 298 299 306 300 307 307 295 286 281 273 265 268 268 262 265 146 141 214 245 250 271 277 134 143 262 259 262 266 258 222 143 181 227 242 254 250 245 249 251 251 255 269 288 274 252 252 255 260 256 130 119 139 144 150 160 173 199 228 234 226 214 207 203 201 199
352 333 352 0 6 27 55 36 20 20 24 356 339 338 335 320 327 341 341 341 339 334 321 309 307 311 313 310 295 290 292 281 271 274 275 273 268 211 188 202 214 240 254 271 274 162 186 250 258 265 273 260 233 213 209 203 218 243 247 234 235 244 251 255 264 278 264 253 257 257 259 260 139 137 186 174 166 188 184 174 207 237 221 206 201 201 202 198
348 331 357 1 10 44 77 52 25 5 352 346 338 344 346 337 355 342 324 317 319 327 319 309 307 306 304 300 288 283 278 265 269 282 280 276 272 228 218 222 222 243 258 255 204 201 238 262 258 259 270 266 256 257 270 241 229 237 240 237 236 234 230 232 249 252 246 251 252 246 257 273 218 165 194 204 198 218 205 177 194 225 208 193 192 197 200 196
349 333 351 354 15 52 81 73 41 11 351 348 339 342 340 322 325 333 323 311 327 341 324 309 305 304 308 325 318 301 287 273 270 278 280 279 274 260 257 265 246 256 277 257 221 230 253 261 252 254 261 266 272 280 301 309 282 267 261 255 245 234 230 234 247 251 255 266 258 247 256 271 264 243 252 261 245 231 225 216 213 196 178 182 189 193 196 193
346 343 3 350 360 45 78 69 33 15 4 338 325 329 325 315 320 337 327 317 343 338 321 298 303 329 347 346 330 312 306 297 284 285 289 284 285 294 300 276 260 259 272 253 230 232 253 256 250 254 257 261 269 275 279 281 275 271 273 270 260 249 240 237 242 251 261 269 263 259 262 269 272 271 275 285 281 246 237 245 228 191 175 184 188 188 189 186
360 55 41 2 320 330 14 15 8 2 330 294 302 294 298 304 314 319 309 315 326 330 322 284 288 337 351 347 332 309 306 303 294 300 312 314 318 323 309 281 266 240 235 243 230 224 257 260 256 261 262 260 264 269 272 273 270 265 266 266 264 259 249 244 246 249 250 254 261 270 273 272 275 276 277 286 283 253 255 256 227 200 190 191 188 188 189 189
21 50 141 308 283 282 297 313 324 311 267 257 269 262 272 292 302 298 299 312 307 311 315 286 287 318 336 335 323 304 303 306 299 303 319 321 319 320 306 288 277 254 252 255 239 227 258 262 261 266 268 265 264 267 268 268 267 264 261 258 258 257 254 255 256 250 246 251 261 270 273 270 269 273 279 284 260 240 263 252 223 215 206 198 194 195 196 197
47 305 299 299 278 271 277 279 273 274 263 226 240 254 254 273 287 289 287 289 285 286 288 281 285 309 317 313 304 289 290 299 294 291 299 302 303 307 300 291 292 292 291 283 264 240 244 261 268 270 271 269 266 266 267 265 264 265 262 257 254 254 254 256 256 250 247 254 261 264 265 266 266 269 272 267 219 231 249 235 225 224 212 201 201 202 201 204
162 227 267 299 280 256 249 248 238 264 270 227 230 259 245 252 275 304 298 276 267 272 278 286 301 311 300 290 285 283 289 293 288 286 287 284 284 289 285 281 294 301 295 288 280 255 244 261 271 267 267 269 267 267 267 267 267 265 260 256 253 252 253 252 248 245 245 254 260 259 259 266 270 254 225 199 192 216 226 220 219 216 205 202 206 208 209 210
49 226 234 271 276 242 236 248 234 248 274 245 240 261 263 265 283 314 304 279 257 261 271 306 317 311 292 283 286 292 299 296 288 287 285 277 274 274 270 268 272 274 271 275 277 264 257 264 267 264 267 270 269 271 275 275 269 258 254 255 252 248 249 249 245 244 245 248 254 256 262 269 255 164 169 179 186 200 211 212 211 206 201 204 210 213 212 212
Height
1514 1512 1511 1510 1508 1507 1506 1504 1503 1501 1500 1499 1499 1499 1500 1501 1501 1502 1503 1504 1505 1506 1507 1507 1508 1509 1510 1510 1510 1511 1511 1511 1510 1510 1510 1510 1510 1510 1511 1512 1512 1514 1515 1516 1517 1518 1519 1519 1519 1519 1519 1519 1519 1518 1517 1517 1517 1515 1512 1512 1508 1506 1506 1504 1505 1503 1502 1501 1497 1497 1498 1499 1499 1498 1499 1499 1498 1497 1497 1498 1498 1500 1502 1503 1504 1505 1506 1507
1514 1513 1511 1510 1508 1507 1506 1504 1503 1501 1500 1499 1498 1498 1499 1500 1501 1502 1502 1503 1504 1505 1506 1507 1508 1508 1509 1509 1510 1510 1510 1510 1510 1510 1510 1509 1509 1509 1510 1511 1512 1513 1514 1516 1517 1518 1519 1519 1519 1519 1519 1518 1516 1516 1516 1516 1516 1513 1511 1511 1506 1504 1503 1500 1501 1500 1500 1501 1498 1498 1499 1499 1499 1498 1499 1498 1496 1496 1495 1496 1498 1499 1501 1502 1504 1505 1506 1506
1515 1513 1512 1510 1509 1507 1506 1504 1502 1501 1499 1498 1498 1498 1499 1500 1500 1501 1502 1503 1504 1505 1506 1507 1507 1508 1508 1509 1509 1510 1510 1510 1510 1510 1509 1509 1509 1509 1510 1510 1512 1513 1514 1516 1517 1518 1519 1519 1519 1519 1519 1516 1515 1516 1515 1515 1514 1512 1512 1511 1504 1501 1500 1498 1499 1499 1500 1500 1498 1498 1499 1498 1499 1499 1499 1497 1495 1493 1493 1494 1496 1497 1499 1502 1503 1505 1506 1506
1515 1514 1512 1511 1509 1508 1506 1504 1502 1501 1499 1498 1498 1498 1499 1499 1500 1501 1501 1502 1504 1504 1505 1506 1507 1508 1508 1509 1509 1509 1509 1509 1509 1509 1509 1508 1508 1508 1509 1510 1511 1513 1514 1516 1517 1518 1518 1519 1519 1519 1518 1514 1513 1515 1513 1514 1513 1511 1511 1509 1503 1500 1500 1498 1498 1498 1499 1500 1499 1499 1499 1498 1499 1500 1499 1496 1494 1493 1494 1496 1497 1496 1497 1500 1501 1503 1505 1506
1516 1514 1513 1511 1509 1508 1506 1504 1502 1501 1499 1498 1498 1498 1499 1499 1500 1501 1501 1502 1503 1504 1505 1506 1507 1507 1508 1508 1509 1509 1509 1509 1508 1508 1509 1508 1508 1508 1509 1510 1511 1512 1514 1515 1516 1517 1518 1519 1519 1518 1517 1512 1511 1512 1511 1512 1514 1511 1508 1505 1503 1502 1501 1499 1497 1498 1499 1500 1499 1499 1499 1499 1499 1500 1499 1498 1497 1497 1498 1498 1498 1497 1498 1498 1498 1500 1502 1505
1517 1515 1513 1511 1509 1508 1506 1504 1502 1501 1499 1498 1498 1498 1499 1499 1500 1500 1501 1502 1503 1504 1505 1506 1506 1507 1508 1508 1508 1508 1509 1508 1507 1508 1508 1508 1508 1508 1509 1510 1511 1512 1513 1515 1516 1517 1518 1519 1518 1516 1514 1511 1510 1510 1510 1512 1514 1512 1506 1502 1503 1502 1501 1499 1497 1498 1498 1498 1499 1499 1499 1499 1498 1499 1501 1501 1501 1501 1500 1498 1497 1497 1498 1498 1497 1497 1500 1503
1517 1515 1513 1511 1510 1508 1506 1504 1502 1501 1500 1499 1498 1499 1499 1500 1500 1501 1501 1502 1503 1504 1505 1506 1506 1507 1508 1508 1508 1508 1508 1508 1508 1508 1507 1507 1508 1508 1509 1510 1511 1512 1513 1515 1516 1517 1518 1518 1517 1514 1513 1511 1510 1509 1510 1511 1511 1511 1507 1502 1502 1502 1500 1498 1497 1498 1498 1498 1498 1499 1500 1499 1498 1500 1502 1502 1502 1502 1500 1498 1497 1496 1497 1498 1497 1498 1500 1502
1518 1516 1514 1512 1510 1508 1506 1504 1503 1502 1501 1500 1499 1499 1499 1500 1500 1501 1502 1502 1503 1504 1505 1506 1506 1507 1507 1507 1508 1507 1507 1508 1508 1507 1507 1507 1507 1508 1509 1510 1511 1512 1514 1516 1516 1517 1517 1517 1516 1515 1512 1510 1510 1510 1510 1510 1507 1507 1506 1502 1501 1501 1499 1498 1498 1498 1498 1498 1498 1498 1498 1499 1499 1500 1501 1502 1503 1502 1500 1499 1498 1497 1498 1499 1499 1500 1501 1502
1519 1516 1514 1513 1511 1509 1507 1505 1504 1503 1502 1501 1500 1500 1500 1500 1501 1501 1502 1503 1503 1504 1505 1506 1506 1507 1507 1507 1507 1506 1506 1508 1507 1507 1507 1507 1507 1508 1509 1510 1511 1512 1514 1516 1516 1517 1516 1516 1516 1515 1512 1510 1511 1510 1510 1510 1506 1505 1505 1502 1501 1499 1499 1499 1498 1498 1498 1498 1497 1497 1498 1500 1500 1500 1501 1503 1504 1502 1501 1501 1499 1499 1499 1500 1500 1501 1502 1502
1519 1517 1515 1513 1511 1509 1507 1505 1504 1503 1503 1502 1501 1501 1501 1501 1502 1502 1502 1503 1503 1504 1505 1506 1506 1507 1507 1507 1506 1505 1506 1508 1507 1507 1507 1507 1507 1508 1509 1510 1511 1513 1515 1516 1516 1517 1516 1516 1516 1516 1514 1511 1512 1510 1509 1509 1507 1505 1504 1502 1500 1498 1499 1498 1497 1497 1498 1498 1496 1496 1498 1501 1501 1501 1503 1505 1505 1504 1503 1502 1501 1501 1500 1500 1501 1502 1503 1503
1520 1517 1515 1514 1512 1510 1508 1506 1505 1504 1504 1503 1503 1502 1502 1502 1502 1503 1503 1503 1504 1504 1505 1505 1506 1507 1507 1507 1505 1504 1506 1508 1507 1507 1507 1507 1508 1509 1510 1511 1512 1514 1515 1516 1516 1517 1516 1516 1516 1515 1513 1511 1511 1509 1508 1508 1506 1505 1504 1501 1497 1496 1497 1496 1495 1495 1496 1497 1497 1495 1495 1499 1502 1503 1506 1507 1506 1505 1504 1503 1503 1502 1500 1501 1502 1503 1504 1505
1520 1517 1515 1514 1512 1510 1509 1507 1505 1505 1504 1504 1504 1503 1503 1503 1503 1503 1504 1504 1504 1505 1505 1506 1506 1507 1507 1507 1506 1505 1507 1508 1507 1508 1507 1507 1508 1509 1510 1511 1512 1514 1515 1516 1516 1516 1516 1516 1516 1515 1512 1512 1509 1506 1507 1507 1506 1504 1503 1502 1496 1493 1495 1495 1494 1493 1494 1497 1497 1494 1496 1500 1504 1507 1509 1508 1507 1506 1505 1505 1505 1505 1502 1501 1502 1503 1505 1506
1520 1518 1516 1514 1513 1511 1509 1508 1506 1505 1505 1505 1504 1504 1504 1504 1504 1504 1504 1504 1505 1505 1506 1506 1506 1507 1507 1506 1506 1506 1507 1507 1507 1508 1507 1508 1508 1509 1510 1511 1512 1513 1515 1516 1516 1515 1515 1515 1515 1514 1513 1512 1508 1507 1507 1506 1506 1504 1501 1500 1497 1494 1494 1495 1494 1492 1492 1495 1495 1495 1501 1508 1508 1510 1510 1509 1508 1507 1506 1506 1507 1507 1504 1502 1502 1503 1505 1507
1521 1518 1516 1515 1513 1512 1510 1508 1507 1506 1505 1505 1505 1504 1504 1504 1504 1504 1504 1505 1505 1505 1506 1506 1506 1507 1506 1506 1506 1507 1507 1507 1508 1508 1508 1508 1509 1509 1510 1511 1512 1513 1513 1514 1515 1514 1514 1514 1514 1513 1512 1510 1507 1507 1505 1503 1504 1502 1501 1500 1497 1497 1496 1494 1493 1492 1492 1494 1492 1491 1500 1510 1510 1510 1511 1510 1509 1507 1507 1507 1507 1507 1505 1504 1503 1504 1505 1506
1521 1519 1517 1515 1514 1513 1511 1509 1507 1506 1505 1505 1505 1504 1504 1504 1504 1505 1505 1505 1505 1505 1506 1506 1506 1506 1506 1505 1506 1506 1506 1507 1507 1507 1508 1508 1509 1510 1511 1511 1512 1513 1513 1514 1513 1513 1513 1513 1513 1510 1509 1508 1507 1506 1502 1500 1500 1500 1504 1503 1497 1497 1496 1494 1494 1493 1495 1493 1489 1489 1498 1510 1512 1513 1513 1511 1510 1508 1507 1508 1508 1508 1507 1506 1505 1505 1506 1506
1521 1519 1518 1516 1514 1513 1512 1510 1508 1507 1506 1505 1505 1505 1504 1504 1504 1505 1505 1505 1505 1505 1506 1506 1506 1506 1504 1504 1506 1506 1506 1507 1507 1508 1508 1508 1510 1511 1511 1512 1512 1512 1513 1513 1512 1512 1512 1512 1511 1509 1507 1505 1503 1503 1501 1501 1500 1498 1502 1502 1498 1498 1496 1495 1495 1493 1494 1493 1490 1491 1499 1509 1512 1514 1514 1511 1511 1509 1508 1508 1509 1509 1508 1507 1507 1507 1507 1507
1521 1520 1518 1516 1515 1513 1512 1511 1509 1507 1506 1505 1505 1505 1505 1505 1504 1505 1505 1505 1505 1505 1506 1506 1506 1506 1504 1504 1506 1506 1506 1507 1507 1508 1508 1508 1509 1510 1511 1512 1512 1513 1512 1512 1512 1511 1511 1511 1510 1507 1505 1503 1500 1500 1504 1506 1502 1497 1498 1498 1498 1500 1499 1497 1496 1494 1494 1495 1496 1496 1501 1510 1513 1514 1514 1512 1511 1509 1509 1509 1509 1510 1509 1509 1509 1508 1508 1508
1521 1520 1518 1516 1515 1514 1512 1511 1509 1508 1506 1505 1504 1504 1504 1504 1504 1505 1505 1505 1505 1505 1506 1505 1506 1507 1506 1505 1504 1505 1506 1506 1507 1508 1508 1508 1509 1510 1511 1511 1512 1512 1511 1511 1510 1510 1510 1508 1506 1504 1501 1500 1498 1500 1505 1505 1500 1499 1500 1499 1498 1498 1498 1498 1498 1497 1496 1497 1500 1500 1504 1511 1513 1513 1513 1513 1512 1510 1510 1510 1509 1510 1510 1510 1510 1509 1509 1508
1522 1519 1518 1516 1515 1514 1512 1511 1510 1508 1506 1505 1504 1504 1504 1504 1504 1505 1505 1505 1505 1504 1504 1504 1504 1505 1504 1503 1504 1505 1505 1506 1507 1507 1508 1508 1509 1510 1510 1511 1511 1511 1510 1508 1507 1508 1507 1505 1505 1505 1501 1499 1499 1500 1502 1500 1500 1501 1501 1501 1501 1499 1495 1495 1499 1498 1497 1500 1502 1503 1507 1511 1512 1513 1513 1513 1513 1512 1511 1510 1510 1510 1510 1511 1511 1510 1509 1509
1521 1519 1518 1516 1515 1514 1513 1511 1510 1508 1507 1505 1504 1504 1504 1504 1503 1503 1504 1504 1503 1502 1502 1502 1503 1502 1502 1502 1504 1505 1505 1506 1507 1507 1508 1508 1509 1509 1510 1510 1510 1509 1507 1504 1505 1505 1506 1507 1505 1502 1500 1500 1501 1501 1500 1499 1500 1501 1500 1500 1499 1499 1495 1494 1498 1498 1497 1501 1504 1506 1508 1510 1512 1512 1512 1514 1514 1512 1511 1510 1510 1510 1511 1511 1511 1511 1510 1510
1521 1519 1518 1516 1515 1514 1513 1512 1510 1509 1508 1506 1505 1505 1506 1505 1504 1504 1504 1503 1502 1502 1501 1502 1502 1502 1502 1503 1503 1504 1505 1506 1506 1507 1507 1507 1509 1508 1508 1508 1507 1506 1504 1503 1505 1505 1508 1508 1502 1498 1500 1501 1501 1501 1500 1500 1500 1500 1499 1498 1497 1495 1494 1494 1497 1497 1497 1500 1503 1506 1508 1510 1512 1512 1512 1513 1513 1513 1512 1512 1511 1511 1511 1511 1511 1512 1512 1512
1521 1519 1517 1516 1515 1514 1513 1512 1511 1510 1508 1507 1506 1506 1507 1506 1505 1505 1505 1503 1501 1501 1501 1501 1501 1501 1502 1502 1502 1503 1504 1504 1505 1506 1505 1507 1508 1506 1506 1505 1504 1502 1501 1504 1506 1506 1508 1504 1497 1497 1499 1500 1501 1501 1501 1500 1500 1499 1497 1498 1497 1492 1491 1495 1496 1496 1497 1498 1501 1505 1507 1508 1509 1510 1511 1511 1512 1514 1514 1513 1513 1512 1511 1512 1512 1512 1512 1512
1520 1518 1517 1516 1514 1514 1513 1512 1511 1510 1509 1508 1507 1507 1506 1505 1505 1505 1505 1504 1501 1499 1500 1500 1501 1501 1501 1502 1502 1503 1503 1501 1501 1503 1504 1506 1506 1505 1505 1503 1502 1502 1502 1503 1504 1506 1506 1498 1494 1497 1499 1500 1501 1500 1501 1500 1498 1497 1495 1497 1495 1490 1494 1498 1497 1497 1497 1496 1498 1502 1504 1505 1507 1509 1509 1510 1511 1513 1514 1514 1514 1512 1511 1512 1512 1512 1512 1512
1520 1518 1517 1515 1514 1514 1513 1512 1511 1510 1509 1508 1507 1507 1506 1505 1505 1505 1505 1503 1500 1498 1499 1499 1500 1501 1501 1501 1501 1502 1502 1501 1500 1501 1503 1504 1504 1505 1503 1501 1502 1503 1501 1501 1503 1504 1500 1496 1496 1498 1499 1499 1500 1499 1499 1499 1496 1492 1492 1495 1493 1490 1495 1496 1496 1497 1496 1495 1496 1500 1504 1501 1502 1507 1507 1508 1511 1512 1514 1514 1513 1513 1512 1512 1512 1512 1513 1514
1519 1518 1516 1515 1514 1513 1512 1513 1511 1510 1510 1508 1508 1507 1506 1505 1504 1505 1505 1503 1500 1497 1497 1498 1499 1500 1500 1500 1501 1501 1501 1500 1500 1501 1502 1503 1504 1503 1502 1502 1503 1501 1500 1501 1504 1502 1498 1496 1498 1499 1498 1497 1499 1498 1496 1497 1497 1491 1488 1490 1491 1493 1494 1495 1497 1497 1497 1497 1492 1498 1507 1499 1494 1502 1503 1503 1508 1510 1512 1512 1512 1513 1512 1512 1512 1513 1514 1514
1519 1517 1516 1515 1514 1512 1513 1512 1511 1511 1509 1509 1509 1507 1506 1505 1504 1505 1505 1502 1499 1496 1496 1498 1498 1498 1499 1499 1500 1501 1501 1499 1499 1500 1501 1502 1503 1502 1502 1501 1501 1500 1500 1501 1501 1498 1496 1497 1498 1499 1498 1497 1498 1496 1493 1496 1497 1495 1489 1487 1491 1494 1494 1495 1496 1499 1501 1496 1489 1494 1506 1501 1493 1495 1496 1500 1504 1505 1508 1510 1510 1511 1511 1510 1511 1512 1513 1513
1518 1517 1516 1514 1513 1513 1513 1512 1512 1511 1510 1510 1508 1506 1506 1504 1504 1505 1505 1507 1505 1497 1496 1498 1497 1498 1498 1499 1499 1500 1503 1500 1498 1499 1500 1501 1502 1502 1502 1499 1499 1500 1499 1502 1503 1498 1496 1498 1498 1498 1498 1497 1495 1493 1493 1495 1497 1496 1491 1491 1494 1494 1495 1495 1494 1497 1495 1490 1489 1489 1496 1501 1494 1488 1490 1496 1501 1502 1504 1506 1506 1508 1508 1509 1510 1511 1512 1512
1518 1517 1515 1514 1513 1513 1512 1512 1512 1511 1511 1510 1507 1507 1506 1504 1506 1504 1507 1518 1513 1497 1496 1497 1497 1499 1498 1499 1499 1498 1500 1498 1498 1500 1499 1500 1501 1501 1501 1497 1497 1498 1497 1503 1505 1497 1494 1498 1498 1498 1498 1495 1492 1492 1493 1495 1496 1494 1492 1493 1494 1493 1495 1493 1493 1494 1489 1492 1496 1486 1489 1500 1493 1485 1490 1494 1498 1500 1500 1500 1501 1503 1505 1507 1508 1509 1510 1511
1518 1516 1515 1514 1514 1513 1513 1512 1512 1511 1511 1509 1508 1508 1505 1505 1507 1502 1508 1520 1509 1494 1497 1498 1497 1499 1498 1498 1498 1498 1498 1497 1498 1499 1498 1500 1500 1500 1499 1496 1496 1498 1497 1500 1500 1495 1495 1498 1497 1497 1497 1493 1491 1492 1493 1495 1494 1492 1493 1494 1493 1493 1493 1492 1494 1491 1488 1498 1499 1482 1484 1497 1490 1485 1492 1496 1496 1495 1493 1495 1497 1499 1502 1504 1506 1508 1509 1510
1517 1516 1515 1514 1513 1513 1513 1512 1512 1511 1510 1509 1508 1507 1505 1507 1505 1507 1519 1519 1502 1496 1498 1497 1497 1499 1497 1497 1496 1496 1497 1496 1497 1498 1498 1499 1499 1499 1499 1498 1498 1497 1497 1497 1497 1494 1494 1497 1498 1497 1496 1493 1492 1493 1493 1495 1493 1492 1493 1492 1490 1489 1487 1490 1490 1488 1495 1501 1491 1478 1479 1491 1491 1483 1484 1489 1488 1484 1485 1490 1494 1496 1499 1502 1504 1506 1507 1508
1516 1515 1515 1514 1514 1513 1512 1513 1512 1510 1510 1509 1507 1506 1507 1505 1502 1512 1522 1510 1498 1499 1497 1496 1498 1497 1497 1498 1496 1495 1495 1495 1496 1497 1497 1497 1497 1498 1498 1499 1499 1498 1498 1496 1494 1493 1494 1497 1496 1494 1496 1494 1494 1494 1492 1494 1493 1493 1493 1490 1492 1488 1483 1488 1487 1491 1505 1499 1483 1479 1479 1488 1494 1480 1472 1478 1478 1477 1481 1485 1489 1493 1495 1499 1502 1503 1505 1507
1516 1515 1515 1514 1514 1513 1512 1512 1511 1510 1510 1507 1508 1507 1506 1507 1507 1510 1509 1500 1502 1503 1497 1498 1499 1496 1498 1498 1496 1496 1496 1496 1495 1495 1495 1494 1495 1495 1496 1497 1496 1501 1503 1495 1493 1493 1491 1491 1491 1493 1496 1495 1495 1494 1491 1492 1492 1493 1490 1489 1497 1496 1492 1497 1494 1492 1497 1487 1480 1482 1483 1489 1487 1472 1467 1472 1474 1476 1478 1480 1485 1489 1492 1496 1499 1501 1503 1504
1516 1515 1515 1514 1514 1513 1513 1512 1511 1510 1509 1507 1508 1505 1504 1512 1514 1505 1498 1498 1504 1502 1498 1500 1498 1497 1499 1497 1496 1497 1496 1496 1495 1495 1495 1495 1495 1493 1493 1494 1493 1500 1502 1496 1496 1497 1492 1488 1488 1493 1494 1493 1495 1493 1490 1490 1490 1491 1489 1491 1499 1501 1507 1513 1502 1493 1489 1482 1478 1480 1486 1490 1478 1467 1468 1470 1473 1476 1477 1480 1484 1487 1490 1494 1496 1499 1501 1502
1515 1515 1515 1514 1514 1514 1513 1512 1511 1510 1508 1507 1507 1505 1509 1517 1511 1502 1499 1498 1500 1499 1499 1501 1499 1497 1498 1496 1496 1496 1496 1496 1493 1495 1496 1495 1496 1494 1492 1494 1494 1496 1497 1497 1498 1497 1501 1498 1489 1490 1492 1491 1492 1491 1490 1489 1488 1489 1487 1491 1495 1495 1504 1510 1500 1494 1491 1483 1479 1482 1490 1487 1474 1471 1473 1472 1475 1477 1478 1481 1483 1487 1490 1493 1495 1497 1499 1500
1515 1515 1515 1515 1515 1514 1513 1512 1511 1509 1509 1507 1505 1506 1513 1514 1504 1501 1503 1499 1499 1500 1499 1499 1499 1499 1496 1494 1495 1496 1498 1497 1494 1495 1495 1493 1495 1493 1490 1491 1493 1494 1496 1500 1498 1494 1501 1497 1486 1488 1490 1489 1491 1490 1490 1491 1491 1489 1487 1491 1493 1487 1491 1497 1496 1495 1497 1496 1490 1486 1484 1473 1468 1473 1472 1473 1478 1478 1480 1482 1482 1487 1489 1491 1495 1495 1496 1499
1518 1517 1517 1517 1516 1515 1513 1512 1511 1510 1509 1506 1505 1507 1509 1508 1504 1504 1505 1503 1503 1503 1502 1500 1498 1499 1497 1493 1494 1496 1498 1497 1495 1495 1493 1491 1492 1491 1490 1490 1491 1492 1494 1497 1496 1494 1499 1494 1485 1490 1491 1489 1492 1491 1491 1494 1493 1491 1491 1490 1488 1485 1488 1496 1499 1498 1503 1509 1496 1481 1476 1467 1464 1473 1473 1475 1479 1477 1480 1482 1482 1486 1488 1490 1492 1492 1495 1497
1520 1519 1518 1518 1516 1514 1513 1512 1510 1510 1509 1506 1507 1509 1507 1506 1507 1507 1506 1507 1506 1504 1506 1505 1501 1500 1500 1496 1494 1495 1497 1497 1495 1496 1494 1492 1492 1491 1491 1492 1492 1492 1492 1494 1494 1492 1498 1495 1485 1487 1491 1489 1492 1493 1491 1492 1492 1491 1492 1488 1484 1487 1489 1494 1504 1505 1505 1506 1489 1474 1477 1472 1466 1472 1475 1475 1477 1478 1479 1480 1481 1485 1486 1488 1489 1490 1493 1494
1521 1519 1518 1517 1516 1514 1512 1510 1509 1509 1509 1506 1508 1511 1509 1508 1509 1509 1509 1509 1508 1506 1507 1507 1504 1502 1503 1501 1497 1494 1498 1498 1495 1496 1495 1493 1494 1492 1491 1492 1493 1493 1493 1496 1496 1492 1497 1499 1487 1482 1488 1490 1491 1493 1492 1490 1490 1490 1489 1486 1488 1496 1494 1493 1505 1510 1504 1502 1491 1476 1473 1472 1467 1466 1469 1471 1472 1475 1477 1478 1480 1482 1483 1485 1486 1489 1492 1493
1521 1520 1519 1518 1516 1513 1511 1510 1509 1509 1508 1507 1509 1512 1513 1511 1511 1512 1512 1510 1509 1507 1507 1505 1504 1504 1504 1503 1500 1497 1499 1500 1496 1497 1498 1496 1496 1493 1491 1492 1493 1495 1495 1495 1496 1493 1495 1503 1497 1484 1485 1490 1489 1491 1491 1488 1488 1490 1489 1486 1487 1493 1493 1490 1493 1496 1497 1500 1495 1484 1476 1470 1461 1455 1459 1465 1466 1469 1474 1476 1477 1478 1479 1482 1484 1487 1489 1491
1521 1520 1520 1519 1516 1513 1512 1511 1510 1510 1510 1512 1515 1515 1515 1514 1513 1513 1513 1512 1510 1508 1507 1505 1505 1506 1504 1502 1502 1500 1500 1501 1499 1499 1499 1496 1496 1494 1490 1492 1493 1494 1497 1496 1495 1494 1493 1502 1503 1490 1486 1491 1489 1485 1484 1482 1482 1487 1489 1488 1487 1488 1489 1489 1486 1483 1489 1495 1493 1492 1487 1469 1454 1452 1457 1462 1464 1466 1470 1472 1473 1475 1476 1479 1482 1484 1486 1488
1522 1521 1521 1520 1517 1515 1514 1513 1514 1514 1514 1517 1520 1519 1518 1518 1515 1514 1513 1513 1511 1509 1508 1507 1506 1507 1505 1504 1503 1501 1501 1501 1499 1499 1497 1494 1496 1495 1491 1492 1493 1493 1496 1496 1494 1495 1494 1498 1501 1494 1489 1489 1484 1480 1480 1481 1481 1483 1484 1483 1484 1484 1486 1495 1494 1479 1478 1486 1484 1487 1488 1469 1453 1454 1458 1460 1463 1465 1467 1469 1470 1472 1474 1477 1479 1482 1484 1486
1524 1523 1523 1521 1519 1517 1515 1516 1519 1519 1519 1522 1525 1523 1522 1520 1517 1514 1513 1513 1511 1509 1508 1508 1507 1506 1506 1505 1503 1501 1502 1501 1498 1498 1497 1494 1494 1494 1491 1493 1494 1493 1495 1494 1492 1494 1495 1496 1498 1496 1488 1483 1481 1482 1484 1484 1483 1484 1484 1482 1481 1482 1484 1493 1496 1482 1477 1481 1477 1480 1486 1469 1454 1456 1459 1460 1464 1465 1467 1469 1469 1470 1472 1475 1477 1480 1483 1484
1526 1526 1524 1521 1519 1518 1517 1519 1522 1522 1523 1527 1527 1524 1522 1521 1518 1516 1514 1514 1512 1510 1509 1508 1507 1507 1506 1505 1505 1504 1503 1502 1498 1495 1495 1492 1490 1491 1492 1494 1495 1494 1494 1493 1492 1495 1498 1497 1498 1495 1485 1476 1477 1482 1484 1484 1485 1486 1484 1481 1481 1482 1481 1482 1484 1481 1483 1483 1478 1485 1488 1469 1455 1458 1460 1461 1464 1465 1467 1469 1469 1471 1472 1473 1476 1478 1481 1483
1527 1526 1524 1523 1520 1518 1520 1524 1526 1525 1526 1528 1526 1523 1522 1521 1520 1519 1517 1516 1515 1513 1512 1510 1508 1508 1507 1506 1506 1505 1505 1506 1501 1494 1492 1492 1491 1491 1492 1494 1495 1494 1493 1493 1492 1496 1498 1496 1496 1499 1496 1488 1485 1486 1486 1485 1486 1484 1479 1478 1480 1480 1480 1482 1481 1484 1490 1486 1479 1486 1484 1464 1456 1461 1461 1461 1463 1463 1465 1467 1469 1470 1471 1473 1475 1477 1479 1481
1528 1525 1524 1524 1521 1520 1524 1528 1529 1527 1528 1528 1526 1524 1522 1521 1521 1521 1520 1518 1516 1515 1514 1512 1509 1508 1507 1506 1506 1504 1503 1505 1502 1496 1493 1493 1491 1491 1493 1494 1494 1492 1492 1492 1492 1494 1496 1493 1493 1501 1505 1502 1496 1489 1483 1481 1481 1481 1478 1478 1479 1478 1480 1484 1485 1487 1490 1484 1477 1480 1475 1460 1455 1460 1460 1459 1461 1461 1463 1465 1467 1469 1470 1472 1474 1476 1478 1479
1530 1528 1526 1526 1524 1524 1527 1530 1530 1529 1529 1530 1527 1524 1523 1522 1521 1521 1520 1517 1516 1516 1515 1513 1510 1509 1507 1507 1508 1507 1503 1501 1500 1498 1496 1495 1492 1490 1492 1494 1494 1492 1492 1493 1493 1493 1493 1490 1489 1493 1494 1492 1487 1480 1474 1476 1479 1481 1479 1478 1478 1477 1477 1480 1484 1484 1482 1480 1476 1471 1467 1461 1457 1456 1456 1455 1456 1459 1461 1462 1464 1467 1469 1471 1472 1474 1476 1476
1533 1533 1532 1531 1528 1526 1527 1529 1531 1530 1531 1532 1529 1525 1524 1523 1520 1521 1520 1517 1517 1517 1515 1512 1510 1511 1512 1512 1513 1511 1506 1502 1501 1499 1498 1496 1492 1490 1492 1492 1492 1493 1492 1493 1493 1492 1492 1491 1488 1487 1486 1482 1478 1475 1473 1475 1478 1479 1478 1476 1475 1475 1475 1478 1481 1479 1477 1481 1477 1463 1460 1463 1457 1454 1454 1452 1453 1457 1459 1460 1463 1464 1467 1469 1470 1472 1473 1474
1534 1535 1536 1536 1533 1529 1528 1529 1531 1532 1532 1532 1529 1527 1526 1523 1521 1521 1520 1518 1518 1517 1516 1514 1511 1512 1514 1515 1516 1514 1510 1507 1505 1502 1500 1499 1497 1496 1494 1491 1490 1491 1492 1491 1490 1490 1491 1489 1484 1482 1482 1477 1475 1475 1473 1474 1474 1474 1476 1475 1472 1472 1472 1474 1475 1474 1475 1478 1471 1459 1460 1461 1455 1452 1452 1451 1452 1456 1458 1460 1462 1463 1465 1467 1468 1470 1471 1472
1536 1536 1536 1536 1535 1532 1531 1531 1532 1532 1531 1530 1529 1526 1525 1523 1521 1521 1519 1519 1519 1517 1517 1517 1514 1513 1514 1515 1516 1516 1514 1513 1512 1508 1505 1505 1505 1503 1499 1495 1491 1489 1489 1489 1488 1490 1491 1487 1481 1481 1478 1473 1473 1473 1471 1472 1472 1469 1469 1470 1468 1467 1467 1466 1467 1467 1469 1468 1461 1457 1460 1456 1451 1450 1449 1449 1453 1456 1458 1460 1461 1462 1464 1465 1466 1468 1469 1470
1537 1537 1536 1536 1534 1532 1532 1532 1531 1530 1528 1529 1528 1524 1522 1523 1520 1519 1519 1521 1521 1518 1517 1517 1515 1515 1516 1516 1516 1516 1513 1514 1515 1512 1508 1509 1508 1505 1502 1499 1493 1491 1491 1489 1488 1490 1493 1487 1480 1480 1481 1475 1470 1469 1469 1468 1467 1464 1463 1461 1461 1462 1461 1461 1460 1460 1463 1463 1457 1457 1458 1450 1445 1446 1447 1450 1454 1456 1457 1459 1460 1461 1462 1463 1465 1466 1467 1469
1537 1536 1537 1537 1533 1531 1531 1530 1529 1529 1526 1525 1524 1521 1521 1521 1519 1520 1520 1519 1519 1518 1516 1516 1516 1516 1517 1516 1515 1514 1512 1512 1513 1512 1510 1510 1508 1507 1504 1500 1497 1497 1495 1492 1490 1490 1492 1489 1481 1483 1486 1477 1467 1468 1467 1462 1460 1461 1457 1453 1456 1458 1456 1454 1453 1454 1457 1459 1456 1456 1454 1446 1441 1443 1447 1450 1453 1454 1456 1457 1458 1459 1461 1462 1464 1465 1466 1468
1536 1536 1536 1537 1534 1529 1528 1527 1526 1526 1523 1520 1521 1520 1521 1520 1519 1522 1522 1517 1516 1516 1516 1516 1518 1517 1515 1514 1514 1513 1512 1513 1513 1512 1511 1509 1507 1506 1504 1500 1499 1499 1496 1494 1493 1489 1489 1489 1485 1484 1486 1476 1465 1464 1463 1463 1466 1461 1448 1445 1450 1451 1448 1446 1446 1447 1449 1452 1453 1451 1445 1440 1440 1444 1447 1449 1451 1452 1454 1455 1457 1458 1459 1462 1463 1464 1465 1466